Weather History for YBHM - August, 2013

Change the Weather History Date:

Saturday, August 17, 2013

  Actual Average Record
Temperature  
Mean Temperature 73 °F -  
Max Temperature 78 °F - - ()
Min Temperature 68 °F - - ()
Cooling Degree Days 8    
Growing Degree Days 23 (Base 50)    
Moisture  
Dew Point 65 °F    
Average Humidity 79    
Maximum Humidity 88    
Minimum Humidity 61    
Precipitation  
Precipitation 0.00 in - - ()
Sea Level Pressure  
Sea Level Pressure 30.05 in    
Wind  
Wind Speed 13 mph ()    
Max Wind Speed 18 mph    
Max Gust Speed -    
T = Trace of Precipitation, MM = Missing Value Source: Averaged Metar Reports

Daily Weather History Graph

Daily Weather History Graph

Search for Another Location

Airport or City:

Trip Planner

Search our weather history database for the weather conditions in past years. The results will help you decide how hot, cold, wet, or windy it might be!

Date:

Astronomy

Aug. 17, 2013 Rise Set
Actual Time 6:25 AM AEST 5:51 PM AEST
Civil Twilight 6:02 AM AEST 6:14 PM AEST
Nautical Twilight 5:36 AM AEST 6:40 PM AEST
Astronomical Twilight 5:10 AM AEST 7:06 PM AEST
Moon 1:53 PM AEST (8/17) 2:25 AM AEST (8/17)
Length of Visible Light 12h 11m
Length of Day
11h 26m
Waxing Gibbous, 79% of the Moon is Illuminated
Aug 17
Waxing Gibbous
Aug 21
Full
Aug 28
Last Quarter
Sep 5
New
Sep 13
First Quarter

Hourly Weather History & Observations

Time (AEST) Temp. Dew Point Humidity Pressure Visibility Wind Dir Wind Speed Gust Speed Precip Events Conditions
12:00 AM 71 °F 68 °F 87% 30.09 in - East 16.1 mph - -  
12:00 AM 71.6 °F 68.0 °F 88% 30.09 in - East 16.1 mph - N/A   Unknown
12:30 AM 71.6 °F 66.2 °F 83% 30.06 in - East 17.3 mph - N/A   Unknown
1:00 AM 71.6 °F 66.2 °F 83% 30.06 in - East 18.4 mph - N/A   Unknown
1:30 AM 71.6 °F 66.2 °F 83% 30.04 in - East 16.1 mph - N/A   Unknown
2:00 AM 71.6 °F 66.2 °F 83% 30.04 in - East 17.3 mph - N/A   Unknown
2:30 AM 71.6 °F 66.2 °F 83% 30.04 in - East 17.3 mph - N/A   Unknown
3:00 AM 71 °F 66 °F 80% 30.04 in - East 18.4 mph - -  
3:00 AM 71.6 °F 66.2 °F 83% 30.04 in - East 18.4 mph - N/A   Unknown
3:30 AM 71.6 °F 66.2 °F 83% 30.04 in - East 18.4 mph - N/A   Unknown
4:00 AM 69.8 °F 66.2 °F 88% 30.04 in - East 15.0 mph - N/A   Unknown
4:30 AM 69.8 °F 66.2 °F 88% 30.04 in - East 16.1 mph - N/A   Unknown
5:00 AM 69.8 °F 66.2 °F 88% 30.04 in - East 13.8 mph - N/A   Unknown
5:30 AM 69.8 °F 66.2 °F 88% 30.04 in - East 16.1 mph - N/A   Unknown
6:00 AM 69.8 °F 66.2 °F 88% 30.04 in - ENE 16.1 mph - N/A   Unknown
6:30 AM 69.8 °F 66.2 °F 88% 30.06 in - NE 13.8 mph - N/A   Unknown
7:00 AM 69.8 °F 64.4 °F 83% 30.06 in - NE 12.7 mph - N/A   Unknown
7:30 AM 71.6 °F 66.2 °F 83% 30.06 in - ENE 13.8 mph - N/A   Unknown
8:00 AM 71.6 °F 66.2 °F 83% 30.06 in - ENE 10.4 mph - N/A   Unknown
8:30 AM 71.6 °F 64.4 °F 78% 30.09 in - ENE 10.4 mph - N/A   Unknown
9:00 AM 73 °F 66 °F 72% 30.10 in - NE 12.7 mph - -  
9:00 AM 73.4 °F 66.2 °F 78% 30.09 in - NE 12.7 mph - N/A   Unknown
9:30 AM 77.0 °F 66.2 °F 69% 30.09 in - NE 12.7 mph - N/A   Unknown
10:00 AM 77.0 °F 64.4 °F 65% 30.09 in - NE 12.7 mph - N/A   Unknown
10:30 AM 78.8 °F 66.2 °F 65% 30.09 in - NNE 10.4 mph - N/A   Unknown
11:00 AM 77.0 °F 62.6 °F 61% 30.06 in - NNE 10.4 mph - N/A   Unknown
11:30 AM 77.0 °F 66.2 °F 69% 30.06 in - East 12.7 mph - N/A   Unknown
12:00 PM 75 °F 65 °F 65% 30.06 in - East 13.8 mph - -  
12:00 PM 75.2 °F 66.2 °F 73% 30.04 in - East 13.8 mph - N/A   Unknown
12:30 PM 73.4 °F 64.4 °F 73% 30.04 in - East 13.8 mph - N/A   Unknown
1:00 PM 73.4 °F 64.4 °F 73% 30.04 in - East 12.7 mph - N/A   Unknown
1:30 PM 75.2 °F 64.4 °F 69% 30.01 in - East 12.7 mph - N/A   Unknown
2:00 PM 73.4 °F 64.4 °F 73% 30.01 in - East 13.8 mph - N/A   Unknown
2:30 PM 73.4 °F 64.4 °F 73% 30.01 in - East 12.7 mph - N/A   Unknown
3:00 PM 75 °F 65 °F 62% 30.01 in - ENE 11.5 mph - -  
3:00 PM 75.2 °F 64.4 °F 69% 30.01 in - ENE 11.5 mph - N/A   Unknown
3:30 PM 75.2 °F 64.4 °F 69% 30.01 in - NE 11.5 mph - N/A   Unknown
4:00 PM 75.2 °F 64.4 °F 69% 30.01 in - NE 10.4 mph - N/A   Unknown
4:30 PM 73.4 °F 64.4 °F 73% 30.01 in - NE 10.4 mph - N/A   Unknown
5:00 PM 73.4 °F 64.4 °F 73% 30.01 in - NNE 10.4 mph - N/A   Unknown
5:30 PM 71.6 °F 64.4 °F 78% 30.01 in - NNE 10.4 mph - N/A   Unknown
6:00 PM 71 °F 64 °F 71% 30.03 in - NE 11.5 mph - -  
6:00 PM 71.6 °F 64.4 °F 78% 30.01 in - NNE 11.5 mph - N/A   Unknown
6:30 PM 69.8 °F 64.4 °F 83% 30.04 in - NE 8.1 mph - N/A   Unknown
7:00 PM 69.8 °F 64.4 °F 83% 30.04 in - NE 8.1 mph - N/A   Unknown
7:30 PM 69.8 °F 64.4 °F 83% 30.06 in - NE 6.9 mph - N/A   Unknown
8:00 PM 69.8 °F 64.4 °F 83% 30.06 in - NE 8.1 mph - N/A   Unknown
8:30 PM 69.8 °F 64.4 °F 83% 30.06 in - NE 8.1 mph - N/A   Unknown
9:00 PM 69 °F 64 °F 79% 30.08 in - NE 10.4 mph - -  
9:00 PM 69.8 °F 64.4 °F 83% 30.06 in - NE 10.4 mph - N/A   Unknown
9:30 PM 69.8 °F 64.4 °F 83% 30.06 in - NE 8.1 mph - N/A   Unknown
10:00 PM 68.0 °F 64.4 °F 88% 30.06 in - NE 6.9 mph - N/A   Unknown
10:30 PM 68.0 °F 64.4 °F 88% 30.06 in - NNE 5.8 mph - N/A   Unknown
11:00 PM 68.0 °F 64.4 °F 88% 30.06 in - North 4.6 mph - N/A   Unknown
11:30 PM 68.0 °F 64.4 °F 88% 30.06 in - North 4.6 mph - N/A   Unknown